[[{"header":{"parameterUnit":"m.s-1","parameterCategory":1,"la1":30.2992,"la2":30.254,"lo1":-89.0895,"lo2":-89.0443,"dy":0.0025,"dx":0.0025,"nx":19,"ny":19,"refTime":"2026-05-15T09:00:00:Z","depth":0,"parameterNumber":2,"parameterNumberName":"U-component_of_WINDS"},"data":[0,0,0,-4.6769,-4.6772,-4.6874,-4.6874,-4.7031,-4.7032,0,0,0,0,0,0,0,0,0,0,0,-4.6755,-4.6757,-4.6769,-4.6772,-4.6874,-4.6874,-4.703,-4.7032,0,0,0,0,0,0,0,0,0,0,0,-4.6755,-4.6756,-4.6759,-4.6773,-4.6874,-4.6874,-4.703,-4.6944,0,0,0,0,0,0,0,0,0,0,-4.684,-4.6843,-4.6756,-4.6759,-4.6773,-4.6874,-4.6874,-4.6939,-4.6949,-4.6996,0,-4.7042,0,-4.704,-4.7045,-4.7045,0,0,0,-4.676,-4.6835,-4.6848,-4.6759,-4.6774,-4.6874,-4.6825,-4.6944,-4.6956,-4.7009,-4.7044,-4.7049,-4.7043,-4.7046,-4.7047,-4.7359,-4.7361,0,0,-4.6754,-4.6782,-4.684,-4.6856,-4.6842,-4.6821,-4.6828,-4.6951,-4.699,-4.7044,-4.7052,-4.7045,-4.7047,-4.7048,-4.7357,-4.7359,0,0,0,-4.6746,-4.6779,-4.6788,-4.685,-4.6867,-4.6825,-4.6832,-4.6985,-4.6986,-4.7054,-4.7047,-4.7048,-4.705,-4.7355,-4.7358,-4.7486,0,0,0,-4.6742,-4.6774,-4.6786,-4.6804,-4.6865,-4.6927,-4.6864,-4.6977,-4.699,-4.7046,-4.7048,-4.7052,-4.7352,-4.7356,-4.7477,-4.7541,0,0,0,-4.6743,-4.6774,-4.6794,-4.6806,-4.6851,-4.6924,-4.6932,-4.6979,-4.6987,-4.7045,-4.7053,-4.7351,-4.7356,-4.747,-4.7529,-4.7632,0,0,0,-4.6752,-4.6906,-4.6797,-4.6966,-4.685,-4.7003,-4.6931,-4.7043,-4.7109,-4.7049,-4.7353,-4.7357,-4.7467,-4.7521,-4.7624,-4.7724,-4.7768,0,0,-4.6961,-4.6932,-4.7029,-4.6935,-4.7115,-4.6985,-4.7184,-4.7217,-4.7197,-4.7306,-4.7313,-4.748,-4.7528,-4.763,-4.8006,-4.8041,0,0,0,-4.7105,-4.7176,-4.7217,-4.7282,-4.7312,-4.7343,-4.7343,-4.7355,-4.7447,-4.7259,-4.7544,-4.7572,-4.7631,-4.7677,-4.7707,-4.7756,-4.738,-4.738,-4.7379,-4.7441,-4.7408,-4.7568,-4.7548,-4.7611,-4.7611,-4.7659,-4.7676,-4.7623,-4.7691,-4.7723,-4.7955,-4.801,-4.8033,-4.8084,-4.7773,-4.7773,-4.7774,-4.7774,-4.7745,-4.784,-4.7768,-4.7897,-4.7861,-4.7969,-4.7975,-4.7935,-4.803,-4.7928,-4.7978,-4.787,-4.8073,-4.8116,-4.7784,-4.7782,-4.7781,-4.778,-4.7779,-4.7962,-4.8001,-4.8015,-4.8106,-4.8179,-4.8153,-4.8249,-4.8212,-4.8179,-4.8229,-4.8259,-4.8257,-4.825,-4.8246,-4.8247,-4.8247,-4.8248,-4.8249,-4.8249,-4.818,-4.8191,-4.8276,-4.8323,-4.836,-4.8405,-4.8407,-4.8443,-4.8473,-4.8439,-4.8439,-4.838,-4.8099,-4.8029,-4.8262,-4.8259,-4.8258,-4.8257,-4.8256,-4.85,-4.8422,-4.8554,-4.8592,-4.8644,-4.872,-4.8673,-4.8749,-4.8774,-4.8822,-4.8753,-4.8551,-4.8518,-4.8493,-4.8435,-4.8759,-4.8759,-4.8759,-4.8759,-4.8682,-4.8663,-4.8789,-4.8852,-4.891,-4.8882,-4.9032,-4.9036,-4.9028,-4.9041,-4.8989,-4.8909,-4.8886,-4.8866,-4.8834,-4.8779,-4.9184,-4.9184,-4.9184,-4.8877,-4.8862,-4.8996,-4.8988,-4.9027,-4.9061,-4.9201,-4.9276,-4.9251,-4.9201,-4.9051,-4.9033,-4.8903,-4.8863,-4.8808,-4.8759,-4.8657,0,0]},{"header":{"parameterUnit":"m.s-1","parameterCategory":1,"la1":30.2992,"la2":30.254,"lo1":-89.0895,"lo2":-89.0443,"dy":0.0025,"dx":0.0025,"nx":19,"ny":19,"refTime":"2026-05-15T09:00:00:Z","depth":0,"parameterNumber":3,"parameterNumberName":"V-component_of_WINDS"},"data":[0,0,0,1.4468,1.4466,1.4387,1.4386,1.4291,1.4291,0,0,0,0,0,0,0,0,0,0,0,1.4498,1.4498,1.4468,1.4466,1.4387,1.4386,1.4292,1.4291,0,0,0,0,0,0,0,0,0,0,0,1.4498,1.4498,1.4497,1.4466,1.4387,1.4386,1.4292,1.4349,0,0,0,0,0,0,0,0,0,0,1.4424,1.4459,1.4498,1.4497,1.4465,1.4387,1.4386,1.4351,1.4345,1.4331,0,1.4323,0,1.4306,1.4285,1.4285,0,0,0,1.446,1.4465,1.4438,1.4497,1.4465,1.4387,1.4421,1.4348,1.4341,1.4323,1.4321,1.4318,1.4304,1.4284,1.4284,1.4231,1.4231,0,0,1.4465,1.4486,1.4442,1.4433,1.4449,1.4424,1.4419,1.4343,1.4342,1.4321,1.4315,1.4303,1.4284,1.4283,1.423,1.4231,0,0,0,1.4481,1.449,1.4464,1.4438,1.4423,1.4421,1.4416,1.4345,1.4335,1.4314,1.4301,1.4283,1.4282,1.423,1.423,1.4255,0,0,0,1.4484,1.4499,1.4467,1.4479,1.4425,1.4384,1.442,1.4341,1.4331,1.4302,1.4283,1.4281,1.423,1.423,1.4254,1.4262,0,0,0,1.4501,1.4501,1.4493,1.448,1.4448,1.4384,1.437,1.4338,1.4324,1.4285,1.4281,1.423,1.423,1.4253,1.4261,1.4255,0,0,0,1.4524,1.4513,1.4493,1.4475,1.4448,1.4401,1.437,1.4333,1.4302,1.4283,1.423,1.423,1.4253,1.426,1.4255,1.4255,1.4257,0,0,1.4522,1.4514,1.4501,1.4481,1.4444,1.4411,1.4376,1.4325,1.4299,1.4254,1.4253,1.4254,1.4261,1.4255,1.4261,1.4263,0,0,0,1.4508,1.4499,1.4484,1.4458,1.4422,1.439,1.4343,1.4325,1.4286,1.4282,1.425,1.4253,1.4249,1.4247,1.4249,1.4244,1.4231,1.4231,1.4231,1.4535,1.4506,1.4483,1.4445,1.442,1.4373,1.4349,1.4315,1.429,1.4283,1.427,1.4278,1.4277,1.4278,1.4273,1.4267,1.4267,1.4267,1.4267,1.4528,1.4512,1.4483,1.4451,1.442,1.4391,1.4345,1.4329,1.4297,1.4285,1.428,1.427,1.4282,1.4276,1.4269,1.4269,1.4268,1.4268,1.4268,1.4543,1.453,1.451,1.447,1.4441,1.4402,1.4373,1.4345,1.4317,1.4312,1.4294,1.4294,1.429,1.4306,1.4306,1.4306,1.4306,1.4306,1.4306,1.4566,1.4543,1.4524,1.4485,1.4465,1.4435,1.4388,1.4366,1.4335,1.4316,1.4316,1.4292,1.4289,1.4289,1.4306,1.4306,1.4306,1.4306,1.4306,1.4571,1.4566,1.4537,1.4517,1.447,1.4444,1.4408,1.4367,1.4345,1.4331,1.4309,1.4312,1.43,1.4298,1.4298,1.4316,1.4316,1.4316,1.4316,1.4583,1.4575,1.454,1.451,1.4478,1.4443,1.441,1.4373,1.4334,1.4318,1.4311,1.4308,1.4308,1.4296,1.4294,1.4293,1.431,1.431,1.431,1.4584,1.4572,1.455,1.4515,1.4476,1.4443,1.441,1.4375,1.4329,1.4309,1.4305,1.4305,1.43,1.43,1.4279,1.4278,1.4275,0,0]}]]